Wetterdaten: Woche 14.03.16 - 20.03.16 (KW11)
Datum Zeit Temp. A. Feuchte A. Luftdruck Regen Wind Richtung Sonnenschein ET UV Solar Taupunkt Windchill Windben Empfang
14.03.2016 00:00 2,8 C 96 % 1029,6 hPa 0,2 l/m 7,5 km/h (2 Bft) O-NO 0,00 h 0,000 mm 0,0 UV-I 0 W/m 2,2 C 1,6 C 10,6 km/h (2 Bft) 99,09 %
14.03.2016 01:00 2,7 C 95 % 1029,6 hPa 0,0 l/m 7,1 km/h (2 Bft) NO 0,00 h 0,000 mm 0,0 UV-I 0 W/m 2,0 C 1,8 C 9,9 km/h (2 Bft) 98,49 %
14.03.2016 02:00 2,6 C 88 % 1029,5 hPa 0,0 l/m 11,4 km/h (2 Bft) O-NO 0,00 h 0,000 mm 0,0 UV-I 0 W/m 0,8 C -1,4 C 15,8 km/h (3 Bft) 98,18 %
14.03.2016 03:00 2,3 C 86 % 1029,2 hPa 0,0 l/m 12,9 km/h (3 Bft) NO 0,00 h 0,000 mm 0,0 UV-I 0 W/m 0,3 C -2,9 C 17,5 km/h (3 Bft) 98,59 %
14.03.2016 04:00 2,1 C 86 % 1029,1 hPa 0,0 l/m 14,0 km/h (3 Bft) NO 0,00 h 0,025 mm 0,0 UV-I 0 W/m 0,1 C -3,6 C 18,1 km/h (3 Bft) 98,69 %
14.03.2016 05:00 1,9 C 88 % 1029,5 hPa 0,0 l/m 5,8 km/h (1 Bft) O-NO 0,00 h 0,026 mm 0,0 UV-I 0 W/m 0,2 C 1,0 C 8,4 km/h (2 Bft) 98,90 %
14.03.2016 06:00 1,8 C 83 % 1030,0 hPa 0,0 l/m 13,9 km/h (3 Bft) NO 0,00 h 0,000 mm 0,0 UV-I 12 W/m -0,9 C -4,1 C 18,7 km/h (3 Bft) 98,42 %
14.03.2016 07:00 1,8 C 82 % 1030,6 hPa 0,0 l/m 12,0 km/h (2 Bft) NO 0,00 h 0,025 mm 0,0 UV-I 39 W/m -1,1 C -2,9 C 16,7 km/h (3 Bft) 99,11 %
14.03.2016 08:00 1,8 C 82 % 1030,9 hPa 0,0 l/m 12,0 km/h (2 Bft) O-NO 0,00 h 0,026 mm 0,0 UV-I 64 W/m -0,8 C -2,8 C 16,4 km/h (3 Bft) 98,34 %
14.03.2016 09:00 2,2 C 80 % 1030,9 hPa 0,0 l/m 13,0 km/h (3 Bft) O-NO 0,00 h 0,050 mm 0,6 UV-I 117 W/m -0,9 C -3,0 C 17,4 km/h (3 Bft) 99,46 %
14.03.2016 10:00 2,6 C 75 % 1030,6 hPa 0,0 l/m 14,5 km/h (3 Bft) O-NO 0,00 h 0,051 mm 0,9 UV-I 186 W/m -1,3 C -3,4 C 19,3 km/h (3 Bft) 98,14 %
14.03.2016 11:00 2,9 C 72 % 1030,3 hPa 0,0 l/m 15,2 km/h (3 Bft) O-NO 0,00 h 0,102 mm 1,1 UV-I 213 W/m -1,6 C -3,5 C 19,8 km/h (4 Bft) 99,27 %
14.03.2016 12:00 3,6 C 69 % 1029,8 hPa 0,0 l/m 15,8 km/h (3 Bft) O-NO 0,47 h 0,101 mm 1,7 UV-I 349 W/m -1,5 C -2,9 C 21,2 km/h (4 Bft) 97,98 %
14.03.2016 13:00 4,3 C 67 % 1029,1 hPa 0,0 l/m 14,6 km/h (3 Bft) O-NO 0,92 h 0,178 mm 2,2 UV-I 563 W/m -1,3 C -1,4 C 20,4 km/h (4 Bft) 98,30 %
14.03.2016 14:00 5,0 C 65 % 1028,3 hPa 0,0 l/m 12,0 km/h (2 Bft) O-NO 1,00 h 0,254 mm 1,6 UV-I 504 W/m -1,0 C 0,9 C 17,6 km/h (3 Bft) 99,00 %
14.03.2016 15:00 5,3 C 64 % 1027,5 hPa 0,0 l/m 11,7 km/h (2 Bft) O 1,00 h 0,229 mm 0,9 UV-I 373 W/m -1,0 C 1,5 C 16,3 km/h (3 Bft) 97,86 %
14.03.2016 16:00 5,3 C 64 % 1027,1 hPa 0,0 l/m 10,0 km/h (2 Bft) O-SO 0,97 h 0,178 mm 0,5 UV-I 203 W/m -0,9 C 2,5 C 14,6 km/h (3 Bft) 99,35 %
14.03.2016 17:00 4,8 C 67 % 1027,1 hPa 0,0 l/m 5,7 km/h (1 Bft) O-SO 0,42 h 0,101 mm 0,0 UV-I 61 W/m -0,8 C 4,2 C 8,8 km/h (2 Bft) 97,50 %
14.03.2016 18:00 2,5 C 76 % 1027,1 hPa 0,0 l/m 2,2 km/h (1 Bft) SO 0,00 h 0,026 mm 0,0 UV-I 6 W/m -1,2 C 2,5 C 3,1 km/h (1 Bft) 98,83 %
14.03.2016 19:00 1,0 C 84 % 1026,9 hPa 0,0 l/m 1,1 km/h (1 Bft) SO 0,00 h 0,000 mm 0,0 UV-I 0 W/m -1,4 C 1,0 C 1,9 km/h (1 Bft) 97,76 %
14.03.2016 20:00 -0,0 C 87 % 1026,5 hPa 0,0 l/m 1,2 km/h (1 Bft) SO 0,00 h 0,000 mm 0,0 UV-I 0 W/m -1,9 C -0,0 C 2,1 km/h (1 Bft) 98,68 %
14.03.2016 21:00 -0,7 C 90 % 1026,2 hPa 0,0 l/m 0,9 km/h (0 Bft) SO 0,00 h 0,000 mm 0,0 UV-I 0 W/m -2,2 C -0,7 C 1,7 km/h (1 Bft) 98,14 %
14.03.2016 22:00 -1,2 C 90 % 1026,0 hPa 0,0 l/m 1,3 km/h (1 Bft) SO 0,00 h 0,000 mm 0,0 UV-I 0 W/m -2,6 C -1,2 C 2,2 km/h (1 Bft) 98,84 %
14.03.2016 23:00 -1,2 C 92 % 1025,7 hPa 0,0 l/m 0,4 km/h (0 Bft) SO 0,00 h 0,000 mm 0,0 UV-I 0 W/m -2,4 C -1,2 C 0,6 km/h (0 Bft) 98,50 %
15.03.2016 00:00 -1,6 C 92 % 1025,3 hPa 0,0 l/m 2,1 km/h (1 Bft) SO 0,00 h 0,000 mm 0,0 UV-I 0 W/m -2,7 C -1,6 C 2,8 km/h (1 Bft) 98,63 %
15.03.2016 01:00 -1,5 C 92 % 1024,8 hPa 0,0 l/m 3,5 km/h (1 Bft) S 0,00 h 0,000 mm 0,0 UV-I 0 W/m -2,6 C -1,5 C 4,7 km/h (1 Bft) 98,88 %
15.03.2016 02:00 -1,5 C 93 % 1024,0 hPa 0,0 l/m 4,0 km/h (1 Bft) S 0,00 h 0,000 mm 0,0 UV-I 0 W/m -2,5 C -1,5 C 5,4 km/h (1 Bft) 98,50 %
15.03.2016 03:00 -1,3 C 93 % 1023,4 hPa 0,0 l/m 6,3 km/h (2 Bft) S 0,00 h 0,000 mm 0,0 UV-I 0 W/m -2,2 C -1,7 C 8,3 km/h (2 Bft) 98,58 %
15.03.2016 04:00 -0,7 C 92 % 1022,8 hPa 0,0 l/m 5,7 km/h (1 Bft) S-SW 0,00 h 0,000 mm 0,0 UV-I 0 W/m -1,8 C -1,0 C 8,0 km/h (2 Bft) 98,78 %
15.03.2016 05:00 -0,5 C 92 % 1022,3 hPa 0,0 l/m 6,9 km/h (2 Bft) S-SW 0,00 h 0,000 mm 0,0 UV-I 0 W/m -1,6 C -1,4 C 9,6 km/h (2 Bft) 99,22 %
15.03.2016 06:00 -0,1 C 91 % 1021,9 hPa 0,0 l/m 6,6 km/h (2 Bft) W-SW 0,00 h 0,000 mm 0,0 UV-I 9 W/m -1,5 C -0,9 C 9,4 km/h (2 Bft) 98,23 %
15.03.2016 07:00 0,2 C 90 % 1021,9 hPa 0,0 l/m 7,3 km/h (2 Bft) W-SW 0,00 h 0,000 mm 0,0 UV-I 21 W/m -1,2 C -0,8 C 10,1 km/h (2 Bft) 99,23 %
15.03.2016 08:00 0,1 C 94 % 1021,9 hPa 0,0 l/m 6,5 km/h (2 Bft) W 0,00 h 0,025 mm 0,0 UV-I 28 W/m -0,8 C -0,8 C 10,3 km/h (2 Bft) 98,03 %
15.03.2016 09:00 0,3 C 96 % 1021,7 hPa 0,0 l/m 6,9 km/h (2 Bft) W 0,00 h 0,000 mm 0,0 UV-I 35 W/m -0,2 C -0,5 C 10,3 km/h (2 Bft) 99,05 %
15.03.2016 10:00 0,6 C 96 % 1021,7 hPa 0,0 l/m 8,7 km/h (2 Bft) W-SW 0,00 h 0,026 mm 0,0 UV-I 70 W/m -0,0 C -1,7 C 12,7 km/h (3 Bft) 97,91 %
15.03.2016 11:00 0,7 C 96 % 1021,6 hPa 0,0 l/m 6,5 km/h (2 Bft) W 0,00 h 0,025 mm 0,7 UV-I 152 W/m 0,1 C -0,1 C 10,2 km/h (2 Bft) 99,39 %
15.03.2016 12:00 0,8 C 95 % 1021,5 hPa 0,0 l/m 6,3 km/h (2 Bft) W 0,00 h 0,051 mm 0,6 UV-I 108 W/m 0,1 C 0,2 C 9,5 km/h (2 Bft) 97,65 %
15.03.2016 13:00 0,9 C 95 % 1021,2 hPa 1,2 l/m 5,9 km/h (2 Bft) W-SW 0,00 h 0,051 mm 0,6 UV-I 110 W/m 0,2 C 0,5 C 8,6 km/h (2 Bft) 98,83 %
15.03.2016 14:00 1,6 C 93 % 1021,0 hPa 1,8 l/m 7,1 km/h (2 Bft) W-SW 0,43 h 0,051 mm 1,1 UV-I 282 W/m 0,6 C 0,7 C 10,2 km/h (2 Bft) 97,76 %
15.03.2016 15:00 1,5 C 93 % 1020,8 hPa 0,6 l/m 6,0 km/h (2 Bft) W-SW 0,00 h 0,101 mm 0,6 UV-I 124 W/m 0,6 C 1,2 C 8,8 km/h (2 Bft) 99,35 %
15.03.2016 16:00 1,4 C 94 % 1021,0 hPa 0,4 l/m 4,1 km/h (1 Bft) W-SW 0,00 h 0,051 mm 0,0 UV-I 47 W/m 0,5 C 1,4 C 5,9 km/h (2 Bft) 98,29 %
15.03.2016 17:00 1,1 C 96 % 1021,2 hPa 0,2 l/m 3,2 km/h (1 Bft) W-SW 0,00 h 0,025 mm 0,0 UV-I 12 W/m 0,4 C 1,1 C 4,7 km/h (1 Bft) 99,38 %
15.03.2016 18:00 0,8 C 96 % 1021,6 hPa 0,2 l/m 3,3 km/h (1 Bft) S-SW 0,00 h 0,000 mm 0,0 UV-I 0 W/m 0,3 C 0,8 C 4,6 km/h (1 Bft) 97,19 %
15.03.2016 19:00 0,6 C 96 % 1021,9 hPa 0,0 l/m 2,4 km/h (1 Bft) S-SW 0,00 h 0,000 mm 0,0 UV-I 0 W/m 0,1 C 0,6 C 4,0 km/h (1 Bft) 99,17 %
15.03.2016 20:00 0,3 C 97 % 1022,2 hPa 0,0 l/m 3,4 km/h (1 Bft) S-SW 0,00 h 0,000 mm 0,0 UV-I 0 W/m -0,1 C 0,3 C 4,7 km/h (1 Bft) 97,59 %
15.03.2016 21:00 0,3 C 97 % 1022,2 hPa 0,0 l/m 3,1 km/h (1 Bft) S-SW 0,00 h 0,000 mm 0,0 UV-I 0 W/m -0,1 C 0,3 C 4,4 km/h (1 Bft) 98,97 %
15.03.2016 22:00 0,4 C 97 % 1022,3 hPa 0,0 l/m 1,2 km/h (1 Bft) S-SW 0,00 h 0,000 mm 0,0 UV-I 0 W/m -0,0 C 0,4 C 2,0 km/h (1 Bft) 98,05 %
15.03.2016 23:00 0,3 C 97 % 1022,7 hPa 0,0 l/m 5,1 km/h (1 Bft) NO 0,00 h 0,000 mm 0,0 UV-I 0 W/m -0,1 C -0,4 C 7,5 km/h (2 Bft) 99,29 %
16.03.2016 00:00 -0,2 C 97 % 1022,9 hPa 0,0 l/m 4,0 km/h (1 Bft) NO 0,00 h 0,000 mm 0,0 UV-I 0 W/m -0,6 C -0,2 C 5,7 km/h (1 Bft) 97,84 %
16.03.2016 01:00 0,0 C 97 % 1023,2 hPa 0,0 l/m 6,4 km/h (2 Bft) O-NO 0,00 h 0,000 mm 0,0 UV-I 0 W/m -0,4 C -0,6 C 9,0 km/h (2 Bft) 99,18 %
16.03.2016 02:00 0,1 C 96 % 1023,3 hPa 0,0 l/m 6,4 km/h (2 Bft) O-NO 0,00 h 0,000 mm 0,0 UV-I 0 W/m -0,5 C -0,4 C 9,0 km/h (2 Bft) 98,02 %
16.03.2016 03:00 -0,0 C 94 % 1023,4 hPa 0,0 l/m 5,3 km/h (1 Bft) O-NO 0,00 h 0,000 mm 0,0 UV-I 0 W/m -0,9 C -0,1 C 7,3 km/h (2 Bft) 99,46 %
16.03.2016 04:00 -0,2 C 95 % 1023,6 hPa 0,0 l/m 5,5 km/h (1 Bft) O-NO 0,00 h 0,000 mm 0,0 UV-I 0 W/m -0,9 C -0,3 C 7,5 km/h (2 Bft) 98,18 %
16.03.2016 05:00 -0,1 C 95 % 1023,9 hPa 0,0 l/m 5,4 km/h (1 Bft) O-NO 0,00 h 0,000 mm 0,0 UV-I 0 W/m -0,8 C -0,2 C 7,8 km/h (2 Bft) 99,13 %
16.03.2016 06:00 0,0 C 95 % 1024,4 hPa 0,0 l/m 6,4 km/h (2 Bft) O-NO 0,00 h 0,000 mm 0,0 UV-I 7 W/m -0,7 C -0,5 C 9,2 km/h (2 Bft) 97,94 %
16.03.2016 07:00 0,3 C 95 % 1024,9 hPa 0,0 l/m 7,5 km/h (2 Bft) O-NO 0,00 h 0,000 mm 0,0 UV-I 16 W/m -0,4 C -1,0 C 10,8 km/h (2 Bft) 99,44 %
16.03.2016 08:00 0,6 C 95 % 1025,4 hPa 0,2 l/m 12,6 km/h (3 Bft) O-NO 0,00 h 0,000 mm 0,0 UV-I 70 W/m -0,1 C -4,6 C 16,9 km/h (3 Bft) 97,56 %
16.03.2016 09:00 0,9 C 94 % 1025,8 hPa 0,8 l/m 15,1 km/h (3 Bft) O-NO 0,00 h 0,025 mm 0,4 UV-I 126 W/m 0,1 C -5,7 C 19,8 km/h (4 Bft) 98,97 %
16.03.2016 10:00 1,3 C 93 % 1026,2 hPa 0,4 l/m 21,8 km/h (4 Bft) O-NO 0,07 h 0,051 mm 0,8 UV-I 193 W/m 0,2 C -8,6 C 27,8 km/h (4 Bft) 97,75 %
16.03.2016 11:00 2,0 C 89 % 1026,3 hPa 0,8 l/m 28,8 km/h (5 Bft) O-NO 0,57 h 0,076 mm 1,8 UV-I 438 W/m 0,4 C -10,1 C 36,9 km/h (5 Bft) 99,34 %
16.03.2016 12:00 2,9 C 87 % 1026,4 hPa 0,2 l/m 29,3 km/h (5 Bft) O-NO 0,45 h 0,178 mm 1,8 UV-I 430 W/m 0,9 C -9,0 C 37,8 km/h (5 Bft) 97,97 %
16.03.2016 13:00 5,0 C 80 % 1026,2 hPa 0,0 l/m 28,3 km/h (4 Bft) O-NO 1,00 h 0,203 mm 1,9 UV-I 615 W/m 1,9 C -5,9 C 37,1 km/h (5 Bft) 98,83 %
16.03.2016 14:00 6,2 C 73 % 1026,0 hPa 0,0 l/m 28,1 km/h (4 Bft) O-NO 1,00 h 0,280 mm 1,4 UV-I 525 W/m 1,6 C -4,1 C 37,0 km/h (5 Bft) 98,46 %
16.03.2016 15:00 6,4 C 70 % 1025,9 hPa 0,0 l/m 28,8 km/h (5 Bft) O-NO 1,00 h 0,279 mm 0,8 UV-I 380 W/m 1,3 C -4,0 C 37,6 km/h (5 Bft) 98,11 %
16.03.2016 16:00 6,1 C 70 % 1025,9 hPa 0,0 l/m 29,0 km/h (5 Bft) O-NO 1,00 h 0,229 mm 0,5 UV-I 214 W/m 1,1 C -4,5 C 37,8 km/h (5 Bft) 99,05 %
16.03.2016 17:00 5,2 C 74 % 1026,0 hPa 0,0 l/m 26,0 km/h (4 Bft) O-NO 0,32 h 0,152 mm 0,0 UV-I 50 W/m 0,9 C -4,9 C 34,3 km/h (5 Bft) 98,26 %
16.03.2016 18:00 4,2 C 79 % 1026,2 hPa 0,0 l/m 24,1 km/h (4 Bft) O-NO 0,02 h 0,076 mm 0,0 UV-I 7 W/m 0,9 C -5,7 C 32,1 km/h (5 Bft) 98,85 %
16.03.2016 19:00 3,3 C 83 % 1026,7 hPa 0,0 l/m 25,1 km/h (4 Bft) O-NO 0,00 h 0,051 mm 0,0 UV-I 0 W/m 0,8 C -7,2 C 33,1 km/h (5 Bft) 98,80 %
16.03.2016 20:00 2,7 C 85 % 1026,9 hPa 0,0 l/m 20,9 km/h (4 Bft) O-NO 0,00 h 0,026 mm 0,0 UV-I 0 W/m 0,5 C -6,4 C 27,0 km/h (4 Bft) 99,13 %
16.03.2016 21:00 2,4 C 86 % 1026,9 hPa 0,0 l/m 22,9 km/h (4 Bft) O-NO 0,00 h 0,025 mm 0,0 UV-I 0 W/m 0,3 C -7,7 C 30,1 km/h (5 Bft) 99,11 %
16.03.2016 22:00 2,2 C 86 % 1027,1 hPa 0,0 l/m 21,1 km/h (4 Bft) O-NO 0,00 h 0,025 mm 0,0 UV-I 0 W/m 0,1 C -7,1 C 27,4 km/h (4 Bft) 98,47 %
16.03.2016 23:00 1,9 C 86 % 1027,2 hPa 0,0 l/m 18,5 km/h (3 Bft) O-NO 0,00 h 0,026 mm 0,0 UV-I 0 W/m -0,2 C -6,4 C 23,9 km/h (4 Bft) 98,59 %
17.03.2016 00:00 1,8 C 88 % 1027,1 hPa 0,0 l/m 16,5 km/h (3 Bft) O-NO 0,00 h 0,000 mm 0,0 UV-I 0 W/m -0,0 C -5,5 C 22,2 km/h (4 Bft) 98,70 %
17.03.2016 01:00 1,6 C 89 % 1026,8 hPa 0,0 l/m 15,1 km/h (3 Bft) O-NO 0,00 h 0,025 mm 0,0 UV-I 0 W/m 0,1 C -5,1 C 20,1 km/h (4 Bft) 98,90 %
17.03.2016 02:00 1,3 C 91 % 1026,4 hPa 0,0 l/m 13,9 km/h (3 Bft) O-NO 0,00 h 0,026 mm 0,0 UV-I 0 W/m 0,0 C -4,7 C 18,2 km/h (3 Bft) 98,18 %
17.03.2016 03:00 1,3 C 92 % 1026,2 hPa 0,0 l/m 16,2 km/h (3 Bft) O-NO 0,00 h 0,000 mm 0,0 UV-I 0 W/m 0,2 C -6,0 C 21,3 km/h (4 Bft) 99,26 %
17.03.2016 04:00 1,2 C 93 % 1026,0 hPa 0,0 l/m 13,2 km/h (3 Bft) O-NO 0,00 h 0,000 mm 0,0 UV-I 0 W/m 0,2 C -4,4 C 17,8 km/h (3 Bft) 97,91 %
17.03.2016 05:00 0,8 C 94 % 1026,1 hPa 0,0 l/m 10,1 km/h (2 Bft) O-NO 0,00 h 0,000 mm 0,0 UV-I 0 W/m -0,0 C -2,5 C 14,1 km/h (3 Bft) 99,13 %
17.03.2016 06:00 0,8 C 94 % 1026,1 hPa 0,0 l/m 9,4 km/h (2 Bft) O-NO 0,02 h 0,000 mm 0,0 UV-I 20 W/m -0,0 C -2,0 C 13,4 km/h (3 Bft) 97,79 %
17.03.2016 07:00 0,9 C 95 % 1026,2 hPa 0,0 l/m 10,2 km/h (2 Bft) O-NO 0,00 h 0,000 mm 0,0 UV-I 68 W/m 0,2 C -2,4 C 13,9 km/h (3 Bft) 99,63 %
17.03.2016 08:00 1,5 C 94 % 1026,4 hPa 0,0 l/m 15,2 km/h (3 Bft) O-NO 0,20 h 0,025 mm 0,6 UV-I 173 W/m 0,6 C -5,2 C 19,8 km/h (4 Bft) 97,92 %
17.03.2016 09:00 3,6 C 88 % 1026,3 hPa 0,0 l/m 12,1 km/h (2 Bft) O-NO 0,93 h 0,076 mm 1,2 UV-I 422 W/m 1,8 C -0,8 C 16,7 km/h (3 Bft) 99,15 %
17.03.2016 10:00 5,8 C 80 % 1026,0 hPa 0,0 l/m 11,7 km/h (2 Bft) O-NO 1,00 h 0,178 mm 1,8 UV-I 561 W/m 2,6 C 2,0 C 16,2 km/h (3 Bft) 98,42 %
17.03.2016 11:00 7,5 C 74 % 1025,7 hPa 0,0 l/m 8,4 km/h (2 Bft) NO 1,00 h 0,254 mm 2,3 UV-I 631 W/m 3,2 C 5,7 C 12,5 km/h (3 Bft) 97,80 %
17.03.2016 12:00 8,9 C 66 % 1025,3 hPa 0,0 l/m 11,8 km/h (2 Bft) O-NO 1,00 h 0,280 mm 2,4 UV-I 644 W/m 2,9 C 5,4 C 16,6 km/h (3 Bft) 98,50 %
17.03.2016 13:00 9,8 C 62 % 1024,5 hPa 0,0 l/m 13,4 km/h (3 Bft) O-NO 1,00 h 0,330 mm 2,1 UV-I 610 W/m 2,9 C 5,7 C 18,6 km/h (3 Bft) 99,04 %
17.03.2016 14:00 10,4 C 62 % 1023,8 hPa 0,0 l/m 13,4 km/h (3 Bft) O-NO 1,00 h 0,330 mm 1,5 UV-I 520 W/m 3,3 C 6,4 C 18,4 km/h (3 Bft) 98,04 %
17.03.2016 15:00 10,5 C 60 % 1023,2 hPa 0,0 l/m 13,8 km/h (3 Bft) O-NO 1,00 h 0,305 mm 0,9 UV-I 387 W/m 3,0 C 6,4 C 18,5 km/h (3 Bft) 99,51 %
17.03.2016 16:00 10,3 C 61 % 1022,7 hPa 0,0 l/m 13,3 km/h (3 Bft) O-NO 1,00 h 0,228 mm 0,5 UV-I 220 W/m 3,0 C 6,3 C 18,0 km/h (3 Bft) 98,48 %
17.03.2016 17:00 9,4 C 65 % 1022,5 hPa 0,0 l/m 8,8 km/h (2 Bft) O 0,25 h 0,153 mm 0,0 UV-I 53 W/m 3,1 C 7,6 C 12,3 km/h (3 Bft) 98,70 %
17.03.2016 18:00 7,1 C 75 % 1022,3 hPa 0,0 l/m 4,5 km/h (1 Bft) O 0,05 h 0,051 mm 0,0 UV-I 7 W/m 2,9 C 7,1 C 6,1 km/h (2 Bft) 97,71 %
17.03.2016 19:00 5,8 C 80 % 1022,4 hPa 0,0 l/m 2,9 km/h (1 Bft) O-NO 0,00 h 0,025 mm 0,0 UV-I 0 W/m 2,6 C 5,8 C 3,7 km/h (1 Bft) 98,95 %
17.03.2016 20:00 5,4 C 81 % 1022,5 hPa 0,0 l/m 2,6 km/h (1 Bft) NO 0,00 h 0,000 mm 0,0 UV-I 0 W/m 2,3 C 5,4 C 3,7 km/h (1 Bft) 98,15 %
17.03.2016 21:00 4,4 C 82 % 1022,4 hPa 0,0 l/m 2,6 km/h (1 Bft) NO 0,00 h 0,000 mm 0,0 UV-I 0 W/m 1,7 C 4,4 C 3,8 km/h (1 Bft) 99,17 %
17.03.2016 22:00 2,4 C 89 % 1022,3 hPa 0,0 l/m 2,4 km/h (1 Bft) SO 0,00 h 0,000 mm 0,0 UV-I 0 W/m 0,8 C 2,4 C 3,3 km/h (1 Bft) 99,18 %
17.03.2016 23:00 1,4 C 92 % 1022,1 hPa 0,0 l/m 3,4 km/h (1 Bft) SO 0,00 h 0,000 mm 0,0 UV-I 0 W/m 0,3 C 1,4 C 4,4 km/h (1 Bft) 97,99 %
18.03.2016 00:00 1,1 C 93 % 1021,9 hPa 0,0 l/m 3,5 km/h (1 Bft) S 0,00 h 0,000 mm 0,0 UV-I 0 W/m 0,2 C 1,1 C 4,6 km/h (1 Bft) 99,16 %
18.03.2016 01:00 0,6 C 94 % 1021,6 hPa 0,0 l/m 3,7 km/h (1 Bft) S 0,00 h 0,000 mm 0,0 UV-I 0 W/m -0,2 C 0,6 C 4,7 km/h (1 Bft) 98,03 %
18.03.2016 02:00 0,6 C 95 % 1021,0 hPa 0,0 l/m 4,3 km/h (1 Bft) S 0,00 h 0,000 mm 0,0 UV-I 0 W/m -0,1 C 0,6 C 5,9 km/h (2 Bft) 99,56 %
18.03.2016 03:00 0,3 C 95 % 1020,5 hPa 0,0 l/m 3,6 km/h (1 Bft) S 0,00 h 0,000 mm 0,0 UV-I 0 W/m -0,4 C 0,3 C 5,0 km/h (1 Bft) 98,25 %
18.03.2016 04:00 -0,3 C 95 % 1020,0 hPa 0,0 l/m 2,9 km/h (1 Bft) S 0,00 h 0,000 mm 0,0 UV-I 0 W/m -0,9 C -0,3 C 4,0 km/h (1 Bft) 99,43 %
18.03.2016 05:00 -0,5 C 96 % 1019,9 hPa 0,0 l/m 2,9 km/h (1 Bft) S 0,00 h 0,000 mm 0,0 UV-I 0 W/m -1,0 C -0,5 C 4,1 km/h (1 Bft) 97,81 %
18.03.2016 06:00 -0,3 C 96 % 1019,8 hPa 0,0 l/m 5,2 km/h (1 Bft) S 0,02 h 0,000 mm 0,0 UV-I 23 W/m -0,8 C -0,3 C 6,5 km/h (2 Bft) 99,48 %
18.03.2016 07:00 0,8 C 95 % 1019,9 hPa 0,0 l/m 4,1 km/h (1 Bft) SW 0,67 h 0,000 mm 0,0 UV-I 135 W/m 0,1 C 0,8 C 6,0 km/h (2 Bft) 97,84 %
18.03.2016 08:00 2,4 C 92 % 1020,0 hPa 0,0 l/m 4,5 km/h (1 Bft) SW 1,00 h 0,051 mm 0,7 UV-I 294 W/m 1,2 C 2,3 C 6,7 km/h (2 Bft) 99,41 %
18.03.2016 09:00 5,2 C 84 % 1019,8 hPa 0,0 l/m 4,1 km/h (1 Bft) W 1,00 h 0,101 mm 1,2 UV-I 430 W/m 2,7 C 5,0 C 6,8 km/h (2 Bft) 98,25 %
18.03.2016 10:00 7,3 C 77 % 1019,3 hPa 0,0 l/m 4,0 km/h (1 Bft) W-NW 1,00 h 0,178 mm 1,9 UV-I 542 W/m 3,6 C 7,2 C 6,9 km/h (2 Bft) 99,19 %
18.03.2016 11:00 9,4 C 71 % 1018,8 hPa 0,0 l/m 6,6 km/h (2 Bft) W-SW 1,00 h 0,229 mm 2,4 UV-I 615 W/m 4,4 C 8,4 C 10,8 km/h (2 Bft) 98,99 %
18.03.2016 12:00 11,0 C 64 % 1018,1 hPa 0,0 l/m 7,9 km/h (2 Bft) W 1,00 h 0,305 mm 2,5 UV-I 659 W/m 4,6 C 9,6 C 13,2 km/h (3 Bft) 98,25 %
18.03.2016 13:00 12,1 C 58 % 1017,1 hPa 0,0 l/m 11,2 km/h (2 Bft) W-SW 1,00 h 0,330 mm 2,2 UV-I 599 W/m 4,2 C 9,5 C 16,9 km/h (3 Bft) 99,43 %
18.03.2016 14:00 12,8 C 50 % 1016,3 hPa 0,0 l/m 12,6 km/h (3 Bft) W 1,00 h 0,355 mm 1,6 UV-I 521 W/m 2,7 C 9,6 C 19,3 km/h (3 Bft) 98,18 %
18.03.2016 15:00 12,8 C 51 % 1015,8 hPa 0,0 l/m 8,1 km/h (2 Bft) W-SW 0,97 h 0,331 mm 0,9 UV-I 384 W/m 2,9 C 11,6 C 14,3 km/h (3 Bft) 98,41 %
18.03.2016 16:00 12,3 C 50 % 1015,6 hPa 0,0 l/m 9,4 km/h (2 Bft) W 1,00 h 0,228 mm 0,5 UV-I 223 W/m 2,3 C 10,5 C 15,1 km/h (3 Bft) 99,27 %
18.03.2016 17:00 11,5 C 51 % 1015,5 hPa 0,0 l/m 10,8 km/h (2 Bft) W 0,50 h 0,178 mm 0,0 UV-I 62 W/m 1,7 C 8,9 C 15,6 km/h (3 Bft) 97,68 %
18.03.2016 18:00 10,0 C 56 % 1015,8 hPa 0,0 l/m 7,1 km/h (2 Bft) W-SW 0,07 h 0,102 mm 0,0 UV-I 9 W/m 1,6 C 9,1 C 10,1 km/h (2 Bft) 99,17 %
18.03.2016 19:00 8,6 C 61 % 1016,0 hPa 0,0 l/m 8,7 km/h (2 Bft) SW 0,00 h 0,050 mm 0,0 UV-I 0 W/m 1,5 C 6,9 C 12,3 km/h (3 Bft) 98,54 %
18.03.2016 20:00 7,6 C 64 % 1016,1 hPa 0,0 l/m 7,7 km/h (2 Bft) S-SW 0,00 h 0,051 mm 0,0 UV-I 0 W/m 1,3 C 6,5 C 10,7 km/h (2 Bft) 98,90 %
18.03.2016 21:00 6,9 C 67 % 1016,4 hPa 0,0 l/m 9,0 km/h (2 Bft) SW 0,00 h 0,026 mm 0,0 UV-I 0 W/m 1,2 C 4,9 C 13,0 km/h (3 Bft) 98,55 %
18.03.2016 22:00 5,8 C 73 % 1016,6 hPa 0,0 l/m 11,2 km/h (2 Bft) SW 0,00 h 0,025 mm 0,0 UV-I 0 W/m 1,2 C 2,1 C 15,7 km/h (3 Bft) 98,35 %
18.03.2016 23:00 5,4 C 75 % 1016,7 hPa 0,0 l/m 13,0 km/h (3 Bft) SW 0,00 h 0,025 mm 0,0 UV-I 0 W/m 1,3 C 0,6 C 17,8 km/h (3 Bft) 99,50 %
19.03.2016 00:00 5,3 C 74 % 1016,9 hPa 0,0 l/m 11,9 km/h (2 Bft) SW 0,00 h 0,000 mm 0,0 UV-I 0 W/m 1,2 C 1,3 C 16,4 km/h (3 Bft) 97,76 %
19.03.2016 01:00 4,8 C 76 % 1017,1 hPa 0,0 l/m 6,5 km/h (2 Bft) W 0,00 h 0,025 mm 0,0 UV-I 0 W/m 0,9 C 3,8 C 9,4 km/h (2 Bft) 98,64 %
19.03.2016 02:00 4,3 C 77 % 1017,0 hPa 0,0 l/m 6,1 km/h (2 Bft) W-SW 0,00 h 0,026 mm 0,0 UV-I 0 W/m 0,6 C 3,7 C 8,8 km/h (2 Bft) 97,80 %
19.03.2016 03:00 4,5 C 78 % 1016,8 hPa 0,0 l/m 2,9 km/h (1 Bft) SW 0,00 h 0,025 mm 0,0 UV-I 0 W/m 1,0 C 4,5 C 4,6 km/h (1 Bft) 98,99 %
19.03.2016 04:00 4,6 C 77 % 1016,9 hPa 0,0 l/m 2,2 km/h (1 Bft) W-SW 0,00 h 0,000 mm 0,0 UV-I 0 W/m 1,0 C 4,6 C 3,3 km/h (1 Bft) 97,98 %
19.03.2016 05:00 4,4 C 79 % 1016,7 hPa 0,0 l/m 2,1 km/h (1 Bft) S-SW 0,00 h 0,000 mm 0,0 UV-I 0 W/m 1,0 C 4,4 C 3,2 km/h (1 Bft) 99,30 %
19.03.2016 06:00 4,3 C 81 % 1016,6 hPa 0,0 l/m 2,7 km/h (1 Bft) S 0,00 h 0,000 mm 0,0 UV-I 12 W/m 1,3 C 4,3 C 3,9 km/h (1 Bft) 98,02 %
19.03.2016 07:00 4,7 C 82 % 1016,8 hPa 0,0 l/m 2,4 km/h (1 Bft) S 0,00 h 0,000 mm 0,0 UV-I 49 W/m 1,8 C 4,7 C 3,7 km/h (1 Bft) 99,22 %
19.03.2016 08:00 5,8 C 78 % 1017,0 hPa 0,0 l/m 2,1 km/h (1 Bft) S-SW 0,00 h 0,026 mm 0,5 UV-I 130 W/m 2,3 C 5,8 C 3,2 km/h (1 Bft) 97,95 %
19.03.2016 09:00 6,9 C 74 % 1017,0 hPa 0,0 l/m 2,6 km/h (1 Bft) W 0,03 h 0,050 mm 0,9 UV-I 224 W/m 2,6 C 6,9 C 4,2 km/h (1 Bft) 98,57 %
19.03.2016 10:00 8,6 C 67 % 1016,8 hPa 0,0 l/m 3,3 km/h (1 Bft) W 0,83 h 0,102 mm 1,7 UV-I 417 W/m 2,8 C 8,6 C 5,7 km/h (1 Bft) 98,08 %
19.03.2016 11:00 10,5 C 62 % 1016,6 hPa 0,0 l/m 3,9 km/h (1 Bft) NW 1,00 h 0,203 mm 2,7 UV-I 673 W/m 3,6 C 10,4 C 7,0 km/h (2 Bft) 99,00 %
19.03.2016 12:00 11,8 C 59 % 1016,2 hPa 0,0 l/m 4,1 km/h (1 Bft) NW 0,75 h 0,330 mm 2,2 UV-I 456 W/m 4,1 C 11,7 C 7,5 km/h (2 Bft) 97,34 %
19.03.2016 13:00 12,8 C 54 % 1015,7 hPa 0,0 l/m 6,4 km/h (2 Bft) W-NW 0,92 h 0,254 mm 1,9 UV-I 422 W/m 3,6 C 12,2 C 12,2 km/h (2 Bft) 99,39 %
19.03.2016 14:00 12,7 C 56 % 1015,4 hPa 0,0 l/m 6,2 km/h (2 Bft) W-NW 0,53 h 0,280 mm 1,2 UV-I 322 W/m 4,0 C 12,1 C 12,2 km/h (2 Bft) 97,08 %
19.03.2016 15:00 12,8 C 57 % 1015,2 hPa 0,0 l/m 5,8 km/h (2 Bft) W-NW 0,73 h 0,203 mm 0,8 UV-I 291 W/m 4,4 C 12,5 C 11,3 km/h (2 Bft) 99,35 %
19.03.2016 16:00 12,5 C 59 % 1015,1 hPa 0,0 l/m 4,5 km/h (1 Bft) W-NW 0,80 h 0,178 mm 0,5 UV-I 206 W/m 4,6 C 12,3 C 8,6 km/h (2 Bft) 97,84 %
19.03.2016 17:00 11,0 C 63 % 1015,4 hPa 0,0 l/m 3,3 km/h (1 Bft) NW 0,17 h 0,127 mm 0,0 UV-I 56 W/m 4,3 C 11,0 C 6,5 km/h (2 Bft) 99,12 %
19.03.2016 18:00 8,9 C 69 % 1015,7 hPa 0,0 l/m 1,5 km/h (1 Bft) W-NW 0,10 h 0,051 mm 0,0 UV-I 8 W/m 3,6 C 8,9 C 2,8 km/h (1 Bft) 97,90 %
19.03.2016 19:00 8,0 C 72 % 1016,4 hPa 0,0 l/m 4,1 km/h (1 Bft) W 0,00 h 0,000 mm 0,0 UV-I 0 W/m 3,4 C 7,8 C 6,1 km/h (2 Bft) 99,65 %
19.03.2016 20:00 6,9 C 78 % 1017,1 hPa 0,0 l/m 4,5 km/h (1 Bft) O-NO 0,00 h 0,025 mm 0,0 UV-I 0 W/m 3,3 C 6,6 C 6,6 km/h (2 Bft) 98,05 %
19.03.2016 21:00 5,8 C 81 % 1017,6 hPa 0,0 l/m 0,9 km/h (0 Bft) O-SO 0,00 h 0,000 mm 0,0 UV-I 0 W/m 2,8 C 5,8 C 1,7 km/h (1 Bft) 99,03 %
19.03.2016 22:00 4,5 C 86 % 1017,6 hPa 0,0 l/m 1,1 km/h (0 Bft) O-SO 0,00 h 0,000 mm 0,0 UV-I 0 W/m 2,3 C 4,5 C 2,0 km/h (1 Bft) 98,36 %
19.03.2016 23:00 4,8 C 86 % 1017,7 hPa 0,0 l/m 1,0 km/h (0 Bft) S-SW 0,00 h 0,000 mm 0,0 UV-I 0 W/m 2,6 C 4,8 C 1,8 km/h (1 Bft) 98,81 %
20.03.2016 00:00 5,1 C 85 % 1017,7 hPa 0,0 l/m 1,2 km/h (1 Bft) S-SW 0,00 h 0,000 mm 0,0 UV-I 0 W/m 2,8 C 5,1 C 2,3 km/h (1 Bft) 95,52 %
20.03.2016 01:00 5,2 C 82 % 1017,6 hPa 0,0 l/m 5,4 km/h (1 Bft) W-SW 0,00 h 0,000 mm 0,0 UV-I 0 W/m 2,4 C 5,2 C 7,7 km/h (2 Bft) 98,32 %
20.03.2016 02:00 5,0 C 81 % 1017,1 hPa 0,0 l/m 5,2 km/h (1 Bft) W-SW 0,00 h 0,000 mm 0,0 UV-I 0 W/m 2,1 C 4,9 C 7,6 km/h (2 Bft) 98,79 %
20.03.2016 03:00 4,8 C 83 % 1016,8 hPa 0,0 l/m 4,7 km/h (1 Bft) W-SW 0,00 h 0,000 mm 0,0 UV-I 0 W/m 2,1 C 4,7 C 6,7 km/h (2 Bft) 98,26 %
20.03.2016 04:00 4,7 C 84 % 1016,6 hPa 0,0 l/m 3,2 km/h (1 Bft) W-SW 0,00 h 0,000 mm 0,0 UV-I 0 W/m 2,3 C 4,7 C 4,7 km/h (1 Bft) 98,51 %
20.03.2016 05:00 4,7 C 84 % 1016,6 hPa 0,0 l/m 3,2 km/h (1 Bft) W 0,00 h 0,000 mm 0,0 UV-I 0 W/m 2,3 C 4,7 C 4,9 km/h (1 Bft) 98,58 %
20.03.2016 06:00 4,7 C 82 % 1016,8 hPa 0,0 l/m 5,3 km/h (1 Bft) W 0,00 h 0,000 mm 0,0 UV-I 9 W/m 1,9 C 4,3 C 8,5 km/h (2 Bft) 98,67 %
20.03.2016 07:00 4,8 C 82 % 1017,1 hPa 0,0 l/m 6,5 km/h (2 Bft) W 0,00 h 0,025 mm 0,0 UV-I 36 W/m 2,0 C 4,0 C 10,2 km/h (2 Bft) 98,08 %
20.03.2016 08:00 5,1 C 82 % 1017,2 hPa 0,0 l/m 9,0 km/h (2 Bft) W 0,00 h 0,026 mm 0,0 UV-I 81 W/m 2,2 C 2,9 C 13,6 km/h (3 Bft) 98,96 %
20.03.2016 09:00 5,4 C 79 % 1017,3 hPa 0,0 l/m 8,6 km/h (2 Bft) W 0,00 h 0,051 mm 0,6 UV-I 154 W/m 2,1 C 3,5 C 14,0 km/h (3 Bft) 98,24 %
20.03.2016 10:00 5,6 C 80 % 1017,3 hPa 0,0 l/m 10,2 km/h (2 Bft) W 0,00 h 0,076 mm 1,0 UV-I 220 W/m 2,4 C 2,7 C 15,8 km/h (3 Bft) 99,07 %
20.03.2016 11:00 6,4 C 77 % 1016,8 hPa 0,0 l/m 8,8 km/h (2 Bft) W-SW 0,00 h 0,101 mm 1,2 UV-I 272 W/m 2,6 C 4,2 C 13,5 km/h (3 Bft) 98,42 %
20.03.2016 12:00 6,9 C 75 % 1016,1 hPa 0,0 l/m 7,9 km/h (2 Bft) W-SW 0,10 h 0,127 mm 1,4 UV-I 326 W/m 2,8 C 5,4 C 13,3 km/h (3 Bft) 98,77 %
20.03.2016 13:00 8,3 C 71 % 1015,4 hPa 0,0 l/m 9,3 km/h (2 Bft) W-SW 1,00 h 0,153 mm 2,1 UV-I 592 W/m 3,3 C 6,1 C 14,7 km/h (3 Bft) 98,71 %
20.03.2016 14:00 9,1 C 68 % 1014,7 hPa 0,0 l/m 9,1 km/h (2 Bft) W 1,00 h 0,279 mm 1,5 UV-I 506 W/m 3,5 C 7,2 C 14,1 km/h (3 Bft) 98,39 %
20.03.2016 15:00 9,6 C 65 % 1014,1 hPa 0,0 l/m 7,9 km/h (2 Bft) W-SW 1,00 h 0,254 mm 0,9 UV-I 372 W/m 3,4 C 8,1 C 12,4 km/h (3 Bft) 99,48 %
20.03.2016 16:00 9,5 C 66 % 1013,4 hPa 0,0 l/m 4,1 km/h (1 Bft) W-NW 1,00 h 0,203 mm 0,5 UV-I 222 W/m 3,4 C 9,4 C 7,7 km/h (2 Bft) 98,51 %
20.03.2016 17:00 8,4 C 68 % 1013,6 hPa 0,0 l/m 3,2 km/h (1 Bft) W 0,37 h 0,127 mm 0,0 UV-I 64 W/m 2,9 C 8,4 C 5,7 km/h (1 Bft) 99,35 %
20.03.2016 18:00 6,7 C 73 % 1014,0 hPa 0,0 l/m 1,7 km/h (1 Bft) W 0,07 h 0,051 mm 0,0 UV-I 9 W/m 2,2 C 6,7 C 2,7 km/h (1 Bft) 97,71 %
20.03.2016 19:00 4,9 C 80 % 1014,3 hPa 0,0 l/m 2,3 km/h (1 Bft) W 0,00 h 0,000 mm 0,0 UV-I 0 W/m 1,7 C 4,9 C 3,6 km/h (1 Bft) 99,66 %
20.03.2016 20:00 4,2 C 81 % 1014,8 hPa 0,0 l/m 3,5 km/h (1 Bft) W 0,00 h 0,000 mm 0,0 UV-I 0 W/m 1,2 C 4,2 C 5,0 km/h (1 Bft) 97,80 %
20.03.2016 21:00 3,3 C 84 % 1015,0 hPa 0,0 l/m 3,1 km/h (1 Bft) SW 0,00 h 0,000 mm 0,0 UV-I 0 W/m 0,9 C 3,3 C 4,6 km/h (1 Bft) 99,27 %
20.03.2016 22:00 4,1 C 83 % 1015,3 hPa 0,0 l/m 4,4 km/h (1 Bft) SW 0,00 h 0,000 mm 0,0 UV-I 0 W/m 1,5 C 4,1 C 6,0 km/h (2 Bft) 98,82 %
20.03.2016 23:00 4,5 C 81 % 1015,6 hPa 0,0 l/m 5,9 km/h (2 Bft) W 0,00 h 0,000 mm 0,0 UV-I 0 W/m 1,5 C 4,2 C 8,7 km/h (2 Bft) 98,67 %
Min-Datum _ 15.03.16 18.03.16 20.03.16 - 14.03.16 - - - - - 15.03.16 16.03.16 14.03.16 20.03.16
_ Min-Zeit 00:25 14:41 16:52 - 18:50 - - - - - 00:26 11:33 18:50 00:02
Minimum _ -1,8 C 47 % 1013,3 hPa - 0,0 km/h (0 Bft) - - - - - -3,1 C -11,8 C 0,0 km/h (0 Bft) 8,33 %
Max-Datum _ 19.03.16 15.03.16 14.03.16 15.03.16 16.03.16 - 14.03.16 18.03.16 19.03.16 16.03.16 18.03.16 19.03.16 16.03.16 14.03.16
_ Max-Zeit 13:42 19:29 07:55 14:05 16:46 - 17:55 14:02 11:22 11:24 12:33 13:42 13:14 00:00
Maximum _ 13,3 C 97 % 1031,0 hPa 1,8 l/m 37,5 km/h
O-NO (5 Bft)
- 0,08 h 0,355 mm 2,9 UV-I 828 W/m 5,8 C 13,3 C 53,1 km/h
O-NO (7 Bft)
100,00 %
Durchschnitt _ 4,1 C 81 % 1021,7 hPa #7,0 l/m 8,3 km/h (2 Bft) O-NO #39:41 h #11,709 mm 1,3 UV-I 241 W/m 1,0 C 1,9 C 11,8 km/h (2 Bft) 98,58 %